Multibeam Report for FK006C


Ship Name: Falkor
Chief Scientist: None
Source Organization: UNOLS R2R
Start Date: 2012-12-05
End Date: 2012-12-15


View ISO Metadata

Visit the full NCEI Bathymetry Viewer


Multibeam Bathymetry

Cruise Details

Project: Shakedown/ROV Dives
Instrument: Kongsberg EM302 and EM710

Data Quality

Number of Files: 117
Number of Records: 82144
BATHYMETRY DATA Quantity Percentage
Number of Beams 35050144 100%
Number of Good Beams 33412118 95.33%
Number of Zero Beams 0 0%
Number of Flagged Beams 1638026 4.67%

Navigation Totals

Total Time: 100.0029 hours
Total Track Length: 1330.6838 km
Average Speed: 13.306 km/hr (7.1847 knots)

Cruise Bounds

Northern Extent: 27.116842
Southern Extent: 25.667742
Western Extent: -86.249374
Eastern Extent: -84.55587

Limits

Minimum Sonar Depth 3.7296 Maximum Sonar Depth 6.9372
Minimum Altitude 149.9372 Maximum Altitude 3896.1531
Minimum Depth 146.7177 Maximum Depth 4501.5459

File Information

Full Resolution Bathymetry as collected (raw): 114

Files File Size Description
0000_20121208_134919_FK006C_EM302.all.mb58.gz 24.86MB Kongsberg multibeam vendor format
0001_20121208_144913_FK006C_EM302.all.mb58.gz 1.15MB Kongsberg multibeam vendor format
0002_20121208_145158_FK006C_EM302.all.mb58.gz 2.97MB Kongsberg multibeam vendor format
0003_20121208_150250_FK006C_EM302.all.mb58.gz 6.74MB Kongsberg multibeam vendor format
0004_20121208_152536_FK006C_EM302.all.mb58.gz 4.32MB Kongsberg multibeam vendor format
0005_20121208_155451_FK006C_EM302.all.mb58.gz 2.95MB Kongsberg multibeam vendor format
0006_20121208_160933_FK006C_EM302.all.mb58.gz 23.47MB Kongsberg multibeam vendor format
0007_20121208_170930_FK006C_EM302.all.mb58.gz 11.79MB Kongsberg multibeam vendor format
0008_20121208_180922_FK006C_EM302.all.mb58.gz 10.76MB Kongsberg multibeam vendor format
0009_20121208_190922_FK006C_EM302.all.mb58.gz 10.75MB Kongsberg multibeam vendor format
0010_20121208_200922_FK006C_EM302.all.mb58.gz 10.79MB Kongsberg multibeam vendor format
0011_20121208_210929_FK006C_EM302.all.mb58.gz 10.65MB Kongsberg multibeam vendor format
0012_20121208_220929_FK006C_EM302.all.mb58.gz 10.73MB Kongsberg multibeam vendor format
0013_20121208_230924_FK006C_EM302.all.mb58.gz 10.75MB Kongsberg multibeam vendor format
0014_20121209_000922_FK006C_EM302.all.mb58.gz 10.74MB Kongsberg multibeam vendor format
0015_20121209_010915_FK006C_EM302.all.mb58.gz 10.75MB Kongsberg multibeam vendor format
0016_20121209_020918_FK006C_EM302.all.mb58.gz 10.71MB Kongsberg multibeam vendor format
0017_20121209_030915_FK006C_EM302.all.mb58.gz 10.74MB Kongsberg multibeam vendor format
0018_20121209_040916_FK006C_EM302.all.mb58.gz 10.75MB Kongsberg multibeam vendor format
0019_20121209_050920_FK006C_EM302.all.mb58.gz 10.72MB Kongsberg multibeam vendor format
0020_20121209_060917_FK006C_EM302.all.mb58.gz 10.75MB Kongsberg multibeam vendor format
0021_20121209_070923_FK006C_EM302.all.mb58.gz 10.68MB Kongsberg multibeam vendor format
0022_20121209_080916_FK006C_EM302.all.mb58.gz 10.73MB Kongsberg multibeam vendor format
0023_20121209_090923_FK006C_EM302.all.mb58.gz 10.63MB Kongsberg multibeam vendor format
0024_20121209_100918_FK006C_EM302.all.mb58.gz 17.90MB Kongsberg multibeam vendor format
0025_20121209_110916_FK006C_EM302.all.mb58.gz 25.39MB Kongsberg multibeam vendor format
0026_20121209_120916_FK006C_EM302.all.mb58.gz 30.64MB Kongsberg multibeam vendor format
0027_20121209_130916_FK006C_EM302.all.mb58.gz 41.47MB Kongsberg multibeam vendor format
0028_20121209_140916_FK006C_EM302.all.mb58.gz 3.04MB Kongsberg multibeam vendor format
0029_20121212_130759_FK006C_EM302.all.mb58.gz 99.98MB Kongsberg multibeam vendor format
0030_20121212_170920_FK006C_EM302.all.mb58.gz 106.20MB Kongsberg multibeam vendor format
0031_20121212_180914_FK006C_EM302.all.mb58.gz 40.24MB Kongsberg multibeam vendor format
0032_20121212_195539_FK006C_EM302.all.mb58.gz 248.8KB Kongsberg multibeam vendor format
0033_20121212_200305_FK006C_EM302.all.mb58.gz 2.14MB Kongsberg multibeam vendor format
0034_20121212_200728_FK006C_EM302.all.mb58.gz 46.02MB Kongsberg multibeam vendor format
0035_20121212_210720_FK006C_EM302.all.mb58.gz 31.54MB Kongsberg multibeam vendor format
0036_20121212_220725_FK006C_EM302.all.mb58.gz 30.31MB Kongsberg multibeam vendor format
0037_20121212_230725_FK006C_EM302.all.mb58.gz 30.16MB Kongsberg multibeam vendor format
0038_20121213_000723_FK006C_EM302.all.mb58.gz 29.62MB Kongsberg multibeam vendor format
0039_20121213_010721_FK006C_EM302.all.mb58.gz 31.77MB Kongsberg multibeam vendor format
0040_20121213_020722_FK006C_EM302.all.mb58.gz 31.07MB Kongsberg multibeam vendor format
0041_20121213_030723_FK006C_EM302.all.mb58.gz 45.23MB Kongsberg multibeam vendor format
0042_20121213_040720_FK006C_EM302.all.mb58.gz 65.02MB Kongsberg multibeam vendor format
0043_20121213_050723_FK006C_EM302.all.mb58.gz 58.90MB Kongsberg multibeam vendor format
0044_20121213_060723_FK006C_EM302.all.mb58.gz 31.06MB Kongsberg multibeam vendor format
0045_20121213_070721_FK006C_EM302.all.mb58.gz 31.11MB Kongsberg multibeam vendor format
0046_20121213_080724_FK006C_EM302.all.mb58.gz 30.59MB Kongsberg multibeam vendor format
0047_20121213_090726_FK006C_EM302.all.mb58.gz 29.33MB Kongsberg multibeam vendor format
0048_20121213_100727_FK006C_EM302.all.mb58.gz 29.68MB Kongsberg multibeam vendor format
0049_20121213_110725_FK006C_EM302.all.mb58.gz 29.39MB Kongsberg multibeam vendor format
0050_20121213_120727_FK006C_EM302.all.mb58.gz 28.46MB Kongsberg multibeam vendor format
0051_20121213_130723_FK006C_EM302.all.mb58.gz 30.06MB Kongsberg multibeam vendor format
0052_20121213_140722_FK006C_EM302.all.mb58.gz 28.46MB Kongsberg multibeam vendor format
0053_20121213_150727_FK006C_EM302.all.mb58.gz 21.66MB Kongsberg multibeam vendor format
0054_20121213_160721_FK006C_EM302.all.mb58.gz 14.44MB Kongsberg multibeam vendor format
0055_20121213_170725_FK006C_EM302.all.mb58.gz 14.21MB Kongsberg multibeam vendor format
0056_20121213_180730_FK006C_EM302.all.mb58.gz 14.09MB Kongsberg multibeam vendor format
0057_20121213_190726_FK006C_EM302.all.mb58.gz 13.68MB Kongsberg multibeam vendor format
0058_20121213_200728_FK006C_EM302.all.mb58.gz 20.23MB Kongsberg multibeam vendor format
0059_20121213_210722_FK006C_EM302.all.mb58.gz 15.94MB Kongsberg multibeam vendor format
0060_20121213_220723_FK006C_EM302.all.mb58.gz 30.98MB Kongsberg multibeam vendor format
0061_20121213_230724_FK006C_EM302.all.mb58.gz 61.38MB Kongsberg multibeam vendor format
0062_20121214_000723_FK006C_EM302.all.mb58.gz 51.33MB Kongsberg multibeam vendor format
0064_20121214_010945_FK006C_EM302.all.mb58.gz 8.14MB Kongsberg multibeam vendor format
0065_20121214_012754_FK006C_EM302.all.mb58.gz 33.99MB Kongsberg multibeam vendor format
0066_20121214_022744_FK006C_EM302.all.mb58.gz 30.66MB Kongsberg multibeam vendor format
0067_20121214_032749_FK006C_EM302.all.mb58.gz 25.84MB Kongsberg multibeam vendor format
0068_20121214_042745_FK006C_EM302.all.mb58.gz 27.63MB Kongsberg multibeam vendor format
0069_20121214_052743_FK006C_EM302.all.mb58.gz 31.50MB Kongsberg multibeam vendor format
0070_20121214_062743_FK006C_EM302.all.mb58.gz 24.71MB Kongsberg multibeam vendor format
0071_20121214_072742_FK006C_EM302.all.mb58.gz 15.06MB Kongsberg multibeam vendor format
0072_20121214_082751_FK006C_EM302.all.mb58.gz 14.94MB Kongsberg multibeam vendor format
0073_20121214_092746_FK006C_EM302.all.mb58.gz 14.90MB Kongsberg multibeam vendor format
0074_20121214_102747_FK006C_EM302.all.mb58.gz 15.06MB Kongsberg multibeam vendor format
0075_20121214_112745_FK006C_EM302.all.mb58.gz 15.05MB Kongsberg multibeam vendor format
0076_20121214_122744_FK006C_EM302.all.mb58.gz 15.08MB Kongsberg multibeam vendor format
0077_20121214_132746_FK006C_EM302.all.mb58.gz 13.25MB Kongsberg multibeam vendor format
0078_20121214_142743_FK006C_EM302.all.mb58.gz 11.12MB Kongsberg multibeam vendor format
0079_20121214_152743_FK006C_EM302.all.mb58.gz 11.15MB Kongsberg multibeam vendor format
0080_20121214_162743_FK006C_EM302.all.mb58.gz 1.69MB Kongsberg multibeam vendor format
0081_20121214_164224_FK006C_EM302.all.mb58.gz 26.1KB Kongsberg multibeam vendor format
0082_20121214_164411_FK006C_EM302.all.mb58.gz 15.19MB Kongsberg multibeam vendor format
0083_20121214_174410_FK006C_EM302.all.mb58.gz 14.97MB Kongsberg multibeam vendor format
0084_20121214_184412_FK006C_EM302.all.mb58.gz 15.07MB Kongsberg multibeam vendor format
0085_20121214_194410_FK006C_EM302.all.mb58.gz 15.07MB Kongsberg multibeam vendor format
0086_20121214_204411_FK006C_EM302.all.mb58.gz 31.15MB Kongsberg multibeam vendor format
0087_20121214_214410_FK006C_EM302.all.mb58.gz 113.25MB Kongsberg multibeam vendor format
0088_20121214_224408_FK006C_EM302.all.mb58.gz 172.98MB Kongsberg multibeam vendor format
0089_20121214_234408_FK006C_EM302.all.mb58.gz 78.01MB Kongsberg multibeam vendor format
0000_20121212_131753_FK006C_EM710.all.mb58.gz 58.06MB Kongsberg multibeam vendor format
0000_20121213_230310_FK006C_EM710.all.mb58.gz 39.27MB Kongsberg multibeam vendor format
0001_20121212_190037_FK006C_EM710.all.mb58.gz 14.66MB Kongsberg multibeam vendor format
0002_20121212_192853_FK006C_EM710.all.mb58.gz 36.41MB Kongsberg multibeam vendor format
0003_20121212_201847_FK006C_EM710.all.mb58.gz 37.10MB Kongsberg multibeam vendor format
0004_20121212_211842_FK006C_EM710.all.mb58.gz 36.38MB Kongsberg multibeam vendor format
0005_20121212_221842_FK006C_EM710.all.mb58.gz 35.09MB Kongsberg multibeam vendor format
0006_20121212_231844_FK006C_EM710.all.mb58.gz 35.21MB Kongsberg multibeam vendor format
0007_20121213_001843_FK006C_EM710.all.mb58.gz 35.07MB Kongsberg multibeam vendor format
0008_20121213_011843_FK006C_EM710.all.mb58.gz 36.53MB Kongsberg multibeam vendor format
0009_20121213_021843_FK006C_EM710.all.mb58.gz 35.98MB Kongsberg multibeam vendor format
0010_20121213_031843_FK006C_EM710.all.mb58.gz 38.87MB Kongsberg multibeam vendor format
0011_20121213_041845_FK006C_EM710.all.mb58.gz 40.22MB Kongsberg multibeam vendor format
0012_20121213_051843_FK006C_EM710.all.mb58.gz 38.83MB Kongsberg multibeam vendor format
0013_20121213_061844_FK006C_EM710.all.mb58.gz 35.60MB Kongsberg multibeam vendor format
0014_20121213_071846_FK006C_EM710.all.mb58.gz 35.77MB Kongsberg multibeam vendor format
0015_20121213_081843_FK006C_EM710.all.mb58.gz 35.22MB Kongsberg multibeam vendor format
0016_20121213_091843_FK006C_EM710.all.mb58.gz 34.51MB Kongsberg multibeam vendor format
0017_20121213_101846_FK006C_EM710.all.mb58.gz 34.50MB Kongsberg multibeam vendor format
0018_20121213_111846_FK006C_EM710.all.mb58.gz 34.04MB Kongsberg multibeam vendor format
0019_20121213_121843_FK006C_EM710.all.mb58.gz 33.93MB Kongsberg multibeam vendor format
0020_20121213_131843_FK006C_EM710.all.mb58.gz 34.82MB Kongsberg multibeam vendor format
0021_20121213_141844_FK006C_EM710.all.mb58.gz 32.56MB Kongsberg multibeam vendor format
0022_20121213_151844_FK006C_EM710.all.mb58.gz 24.95MB Kongsberg multibeam vendor format
0023_20121213_161844_FK006C_EM710.all.mb58.gz 0.61MB Kongsberg multibeam vendor format

Metadata Files: 3

Files File Size Description
FK006C_Multibeam.xml NGDC created ISO metadata
em302_bag_info.tar.gz 4.8KB Additional cruise information
em710_bag_info.tar.gz 1.9KB Additional cruise information